(23) Thalia
ephemeris date magn radius delta ra dec elong phase
Opposition1 Jul 202511.53.126 AU2.117 AU18h44m-31°18'171.8°2.7°
Today3 Jul 202511.53.128 AU2.119 AU18h43m-31°22'171.5°2.7°
(23) Thalia - 2025-07-03
astro.vanbuitenen.nl


 
-1 year
-1 month
-1 day
Now
+1 day
+1 month
+1 year

The interactive orbit chart above shows the body's path through the solar system and its position at the given date. Green and blue lines are shown perpendicular to the ecliptic plane: Green if the path is above the ecliptic plane, blue if it is below. (Left-click and drag to rotate the view; Right-click and drag to move the view; Use scroll wheel to zoom in our out.)

The orbital elements of Thalia are:

            e (Eccentricity)                : 0.2311485
            a (Semimajor axis)              : 2.6289758
            i (Inclination)                 : 10.10886
            Ω (Longitude of ascending node) : 66.49105
            ω (Argument of perihelion)      : 61.61348
            M (Mean anomaly)                : 123.98241
            Epoch                           : 2025 May 05

            L (Longitude of perihelion)     : 127.72799
            B (Latitude of perihelion)      : 8.88285
            P (Orbital period in years)     : 4.26            
        

The light curve chart below shows the estimated development of the minor planet's magnitude.


The all-sky chart below shows the path of the minor planet over the same period as the light curve. The current position is marked yellow.





The following chart shows the path of the minor planet in the next few days. The field of view is optimized for (~10x50) binoculars and finderscopes. A more printer-friendly version of the same chart can be found below.




Ephemerides:
Date       Time       RA (2000)    DEC (2000)    delta   radius  elong  phase   PA    magn
2025-07-03 00:00 UT   18 43 13.9   -31 22 34     2.119    3.128  171.5    2.7     7   11.5 
2025-07-03 06:41 UT   18 42 56.5   -31 23 22     2.119    3.128  171.5    2.8     9   11.5 
2025-07-04 00:00 UT   18 42 11.5   -31 25 24     2.120    3.129  171.2    2.8    15   11.5 
2025-07-05 00:00 UT   18 41 09.3   -31 28 08     2.123    3.130  170.7    3.0    22   11.5 
2025-07-06 00:00 UT   18 40 07.3   -31 30 46     2.125    3.131  170.1    3.2    28   11.6 
2025-07-07 00:00 UT   18 39 05.6   -31 33 17     2.128    3.133  169.5    3.4    34   11.6 
2025-07-08 00:00 UT   18 38 04.2   -31 35 43     2.130    3.134  168.7    3.6    38   11.6 
2025-07-09 00:00 UT   18 37 03.1   -31 38 02     2.134    3.135  167.9    3.9    43   11.6 
2025-07-10 00:00 UT   18 36 02.6   -31 40 14     2.137    3.136  167.0    4.2    46   11.6 
2025-07-11 00:00 UT   18 35 02.5   -31 42 20     2.141    3.137  166.1    4.5    49   11.7 
2025-07-12 00:00 UT   18 34 02.9   -31 44 20     2.145    3.138  165.1    4.8    52   11.7 
2025-07-13 00:00 UT   18 33 04.0   -31 46 14     2.149    3.139  164.1    5.1    55   11.7 
2025-07-14 00:00 UT   18 32 05.8   -31 48 01     2.154    3.140  163.1    5.4    57   11.7 
2025-07-15 00:00 UT   18 31 08.2   -31 49 42     2.159    3.142  162.1    5.7    59   11.7 
2025-07-16 00:00 UT   18 30 11.4   -31 51 16     2.164    3.143  161.1    6.0    61   11.8 
2025-07-17 00:00 UT   18 29 15.4   -31 52 45     2.169    3.144  160.1    6.3    62   11.8 
2025-07-18 00:00 UT   18 28 20.3   -31 54 07     2.175    3.145  159.0    6.6    64   11.8 
2025-07-19 00:00 UT   18 27 26.1   -31 55 24     2.181    3.146  158.0    7.0    65   11.8 
2025-07-20 00:00 UT   18 26 32.9   -31 56 34     2.187    3.147  156.9    7.3    66   11.8 
2025-07-21 00:00 UT   18 25 40.7   -31 57 39     2.193    3.148  155.8    7.6    68   11.9 
2025-07-22 00:00 UT   18 24 49.6   -31 58 38     2.200    3.149  154.8    7.9    69   11.9 
2025-07-23 00:00 UT   18 23 59.5   -31 59 31     2.207    3.150  153.7    8.2    70   11.9 
2025-07-24 00:00 UT   18 23 10.6   -32 00 19     2.214    3.151  152.6    8.5    71   11.9 
2025-07-25 00:00 UT   18 22 22.9   -32 01 01     2.222    3.152  151.6    8.8    71   12.0 
2025-07-26 00:00 UT   18 21 36.4   -32 01 39     2.229    3.153  150.5    9.1    72   12.0 
2025-07-27 00:00 UT   18 20 51.2   -32 02 10     2.237    3.154  149.4    9.4    73   12.0 
2025-07-28 00:00 UT   18 20 07.3   -32 02 37     2.245    3.155  148.4    9.7    74   12.0 
2025-07-29 00:00 UT   18 19 24.7   -32 02 59     2.254    3.156  147.3   10.0    74   12.0 
2025-07-30 00:00 UT   18 18 43.4   -32 03 17     2.262    3.157  146.2   10.3    75   12.1 
2025-07-31 00:00 UT   18 18 03.6   -32 03 29     2.271    3.158  145.2   10.6    75   12.1 
2025-08-01 00:00 UT   18 17 25.2   -32 03 38     2.280    3.159  144.1   10.8    76   12.1 
2025-08-02 00:00 UT   18 16 48.2   -32 03 42     2.290    3.160  143.1   11.1    77   12.1 


    Terminology:
            
    delta:  distance between minor planet and earth in AU
    radius: distance between minor planet and sun in AU
    magn:   magnitude (brightness) estimate    
    ra:     right ascension in hours (24h = 360deg)
    dec:    declination in degrees
    elong:  elongation in degrees (angle sun-earth-minor planet)    
    phase:  phase angle in degrees (angle sun-minor planet-earth)        
    AU:     Astronomical Unit (mean distance between earth and sun: 149597870.7 km
    

Orbital elements provided by the MPC (Minor Planet Center).
Calculations by a modified version of AAPlus, a C# implementation of the AA+ project by PJ Naughter from the algorithms presented in the book "Astronomical Algorithms" by Jean Meeus.
NGC2000 dso catalog and star labels from VizieR as provided by the Strasbourg astronomical Data Center.
Tycho2 catalog from the ESO archive.